Weather History for Eagle River, WI

Change the Weather History Date:

Thursday, June 13, 2013

  Actual Average Record
Temperature  
Mean Temperature 60 °F -  
Max Temperature 69 °F 76 °F 86 °F (2001)
Min Temperature 48 °F 51 °F 37 °F (2011)
Degree Days  
Heating Degree Days 6    
Growing Degree Days 10 (Base 50)    
Moisture  
Dew Point 47 °F    
Average Humidity 66    
Maximum Humidity 98    
Minimum Humidity 46    
Precipitation  
Precipitation 0.00 in - - ()
Sea Level Pressure  
Sea Level Pressure 30.04 in    
Wind  
Wind Speed 7 mph (North)    
Max Wind Speed 17 mph    
Max Gust Speed 28 mph    
Visibility 10 miles    
Events      
Averages and records for this station are not official NWS values.
T = Trace of Precipitation, MM = Missing Value Source: NWS Daily Summary

Daily Weather History Graph

Daily Weather History Graph

Search for Another Location

Airport:

Trip Planner

Search our weather history database for the weather conditions in past years. The results will help you decide how hot, cold, wet, or windy it might be!

Date:

Astronomy

Jun. 13, 2013 Rise Set
Actual Time 5:06 AM CDT 8:48 PM CDT
Civil Twilight 4:27 AM CDT 9:26 PM CDT
Nautical Twilight 3:36 AM CDT 10:18 PM CDT
Astronomical Twilight 2:25 AM CDT 11:29 PM CDT
Moon 9:55 AM CDT (6/13) 11:40 PM CDT (6/13)
Length of Visible Light 16h 59m
Length of Day
15h 42m
Waxing Crescent, 22% of the Moon is Illuminated
Jun 13
Waxing Crescent
Jun 16
First Quarter
Jun 23
Full
Jun 29
Last Quarter
Jul 8
New

Hourly Weather History & Observations

Time (CDT) Temp. Dew Point Humidity Pressure Visibility Wind Dir Wind Speed Gust Speed Precip Events Conditions
12:15 AM 58.1 °F 45.9 °F 64% 29.87 in 10.0 mi North 3.5 mph - N/A   Clear
12:35 AM 58.1 °F 45.9 °F 64% 29.88 in 10.0 mi North 3.5 mph - N/A   Clear
12:55 AM 57.6 °F 46.4 °F 66% 29.89 in 10.0 mi North 4.6 mph - N/A   Clear
1:15 AM 57.6 °F 46.4 °F 66% 29.90 in 10.0 mi North 3.5 mph - N/A   Clear
1:35 AM 56.7 °F 46.2 °F 68% 29.90 in 10.0 mi North 3.5 mph - N/A   Clear
1:55 AM 55.9 °F 46.0 °F 69% 29.91 in 10.0 mi North 4.6 mph - N/A   Clear
2:15 AM 54.9 °F 46.0 °F 72% 29.91 in 10.0 mi North 4.6 mph - N/A   Clear
2:35 AM 55.0 °F 46.0 °F 72% 29.92 in 10.0 mi North 4.6 mph - N/A   Clear
2:55 AM 54.1 °F 45.9 °F 74% 29.92 in 10.0 mi North 3.5 mph - N/A   Clear
3:15 AM 53.6 °F 45.5 °F 74% 29.93 in 10.0 mi North 5.8 mph - N/A   Clear
3:35 AM 52.9 °F 45.1 °F 75% 29.94 in 10.0 mi North 8.1 mph - N/A   Clear
3:55 AM 53.1 °F 45.5 °F 75% 29.94 in 10.0 mi North 5.8 mph - N/A   Scattered Clouds
4:15 AM 52.2 °F 45.7 °F 79% 29.94 in 10.0 mi North 4.6 mph - N/A   Scattered Clouds
4:35 AM 52.2 °F 46.6 °F 81% 29.95 in 10.0 mi North 5.8 mph - N/A   Clear
4:55 AM 52.2 °F 47.3 °F 83% 29.96 in 10.0 mi North 6.9 mph - N/A   Clear
5:15 AM 51.8 °F 48.0 °F 87% 29.97 in 10.0 mi North 5.8 mph - N/A   Clear
5:35 AM 51.8 °F 49.6 °F 92% 29.97 in 10.0 mi NNW 4.6 mph - N/A   Scattered Clouds
5:55 AM 52.2 °F 50.4 °F 94% 29.98 in 10.0 mi North 4.6 mph - N/A   Clear
6:15 AM 52.9 °F 49.3 °F 88% 30.00 in 10.0 mi North 8.1 mph - N/A   Scattered Clouds
6:35 AM 53.1 °F 48.7 °F 85% 30.00 in 10.0 mi North 10.4 mph - N/A   Overcast
6:55 AM 53.4 °F 48.6 °F 84% 30.00 in 10.0 mi North 6.9 mph - N/A   Overcast
7:15 AM 53.6 °F 48.7 °F 84% 30.01 in 10.0 mi North 6.9 mph - N/A   Overcast
7:35 AM 54.5 °F 49.1 °F 82% 30.01 in 10.0 mi NNW 8.1 mph - N/A   Overcast
7:55 AM 54.7 °F 48.6 °F 80% 30.02 in 10.0 mi North 10.4 mph - N/A   Overcast
8:15 AM 54.9 °F 48.2 °F 78% 30.02 in 10.0 mi North 10.4 mph 18.4 mph N/A   Overcast
8:35 AM 55.0 °F 47.8 °F 77% 30.02 in 10.0 mi North 8.1 mph - N/A   Overcast
8:55 AM 57.2 °F 47.8 °F 71% 30.02 in 10.0 mi North 12.7 mph - N/A   Overcast
9:15 AM 56.5 °F 47.1 °F 71% 30.03 in 10.0 mi North 16.1 mph 19.6 mph N/A   Overcast
9:35 AM 59.4 °F 48.2 °F 67% 30.03 in 10.0 mi NNW 15.0 mph 18.4 mph N/A   Overcast
9:55 AM 60.3 °F 47.7 °F 63% 30.03 in 10.0 mi North 13.8 mph 19.6 mph N/A   Overcast
10:15 AM 62.4 °F 48.4 °F 60% 30.03 in 10.0 mi North 11.5 mph 18.4 mph N/A   Scattered Clouds
10:35 AM 62.4 °F 47.5 °F 58% 30.04 in 10.0 mi NNE 13.8 mph 21.9 mph N/A   Scattered Clouds
10:55 AM 63.1 °F 47.5 °F 57% 30.05 in 10.0 mi NNW 17.3 mph 21.9 mph N/A   Mostly Cloudy
11:15 AM 64.4 °F 47.1 °F 53% 30.05 in 10.0 mi North 16.1 mph 20.7 mph N/A   Scattered Clouds
11:35 AM 64.8 °F 46.4 °F 51% 30.05 in 10.0 mi NNW 16.1 mph 19.6 mph N/A   Clear
11:55 AM 65.7 °F 45.0 °F 47% 30.05 in 10.0 mi NNW 16.1 mph 21.9 mph N/A   Clear
12:15 PM 66.6 °F 45.1 °F 46% 30.05 in 10.0 mi NNE 15.0 mph 27.6 mph N/A   Clear
12:35 PM 67.1 °F 45.5 °F 46% 30.07 in 10.0 mi North 12.7 mph 19.6 mph N/A   Scattered Clouds
12:55 PM 66.4 °F 45.9 °F 48% 30.06 in 10.0 mi NNE 13.8 mph 19.6 mph N/A   Scattered Clouds
1:15 PM 67.5 °F 46.2 °F 46% 30.06 in 10.0 mi North 12.7 mph 21.9 mph N/A   Scattered Clouds
1:35 PM 67.3 °F 45.7 °F 46% 30.07 in 10.0 mi North 10.4 mph 21.9 mph N/A   Scattered Clouds
1:55 PM 68.5 °F 46.8 °F 46% 30.07 in 10.0 mi NNE 10.4 mph - N/A   Scattered Clouds
2:15 PM 68.0 °F 46.9 °F 47% 30.08 in 10.0 mi North 10.4 mph - N/A   Scattered Clouds
2:35 PM 67.8 °F 46.4 °F 46% 30.09 in 10.0 mi North 9.2 mph 19.6 mph N/A   Mostly Cloudy
2:55 PM 68.7 °F 46.9 °F 46% 30.09 in 10.0 mi NNE 10.4 mph - N/A   Mostly Cloudy
3:15 PM 68.5 °F 46.9 °F 46% 30.09 in 10.0 mi North 12.7 mph - N/A   Mostly Cloudy
3:35 PM 69.3 °F 47.8 °F 46% 30.09 in 10.0 mi NNE 11.5 mph 17.3 mph N/A   Scattered Clouds
3:55 PM 68.9 °F 47.1 °F 46% 30.10 in 10.0 mi NE 9.2 mph 18.4 mph N/A   Scattered Clouds
4:15 PM 68.9 °F 48.0 °F 47% 30.10 in 10.0 mi North 11.5 mph 17.3 mph N/A   Mostly Cloudy
4:35 PM 67.5 °F 47.3 °F 48% 30.11 in 10.0 mi NE 11.5 mph 18.4 mph N/A   Mostly Cloudy
4:55 PM 68.0 °F 47.3 °F 47% 30.10 in 10.0 mi NNE 15.0 mph 19.6 mph N/A   Scattered Clouds
5:15 PM 66.9 °F 47.1 °F 49% 30.10 in 10.0 mi ENE 9.2 mph 16.1 mph N/A   Scattered Clouds
5:35 PM 67.1 °F 47.7 °F 50% 30.11 in 10.0 mi North 10.4 mph - N/A   Mostly Cloudy
5:55 PM 65.8 °F 47.3 °F 51% 30.11 in 10.0 mi NE 12.7 mph - N/A   Scattered Clouds
6:15 PM 67.1 °F 47.1 °F 49% 30.11 in 10.0 mi NNE 10.4 mph - N/A   Clear
6:35 PM 66.7 °F 47.7 °F 50% 30.11 in 10.0 mi NNE 11.5 mph - N/A   Scattered Clouds
6:55 PM 66.2 °F 47.5 °F 51% 30.11 in 10.0 mi NE 13.8 mph - N/A   Scattered Clouds
7:15 PM 65.3 °F 47.7 °F 53% 30.11 in 10.0 mi NE 9.2 mph - N/A   Clear
7:35 PM 64.6 °F 48.2 °F 55% 30.11 in 10.0 mi NNE 9.2 mph - N/A   Clear
7:55 PM 63.5 °F 48.4 °F 58% 30.11 in 10.0 mi NNE 9.2 mph - N/A   Clear
8:15 PM 61.9 °F 48.7 °F 62% 30.12 in 10.0 mi NE 10.4 mph - N/A   Clear
8:35 PM 60.4 °F 48.7 °F 65% 30.12 in 10.0 mi NE 6.9 mph - N/A   Clear
8:55 PM 59.2 °F 48.6 °F 68% 30.12 in 10.0 mi NE 5.8 mph - N/A   Clear
9:15 PM 57.2 °F 48.6 °F 73% 30.13 in 10.0 mi NE 3.5 mph - N/A   Clear
9:35 PM 56.7 °F 48.4 °F 74% 30.13 in 10.0 mi ENE 3.5 mph - N/A   Clear
9:55 PM 56.3 °F 48.0 °F 74% 30.13 in 10.0 mi NE 3.5 mph - N/A   Clear
10:15 PM 54.5 °F 47.8 °F 78% 30.14 in 10.0 mi NE 5.8 mph - N/A   Clear
10:35 PM 54.1 °F 48.2 °F 80% 30.14 in 10.0 mi Calm Calm - N/A   Clear
10:55 PM 51.3 °F 50.4 °F 97% 30.15 in 10.0 mi Calm Calm - N/A   Clear
11:15 PM 50.4 °F 49.8 °F 98% 30.14 in 10.0 mi Calm Calm - N/A   Clear
11:35 PM 50.5 °F 49.3 °F 95% 30.13 in 10.0 mi Calm Calm - N/A   Clear
11:55 PM 48.6 °F 46.8 °F 93% 30.14 in 7.0 mi WNW 3.5 mph - N/A   Clear